星链-2630 (STARLINK-2630 )

导读 | 豆包AI

STARLINK-2630是美国太空探索技术公司星链星座的卫星,于2021年5月4日发射。作为星链互联网星座组网卫星,它通过低轨部署为全球提供高速互联网服务,尤其覆盖偏远地区,目前已在轨运行近5年,参与构建全球低轨卫星通信网络,支撑星链的全球互联服务能力。

基本信息
目录编号:
48381
目录名称:
STARLINK-2630
国际标识:
2021-038AE
轨道中心:
EARTH
卫星名称:
星链-2630
卫星全名:
星链-2630 (STARLINK-2630 )
卫星状态:
在轨 (已飞行1775 天)
发射日期:
2021-05-04 UTC
国别 :
美国 (US)
星等 :
--
轨道信息
数据来源 国际轨道数据
星历时间: 2026-03-14T07:34:27+0800
17小时前
查看轨道信息
半长轴: 6853.269km
偏心率: 0.0001419
轨道倾角: 53.160°
近地点辐角 93.357°
升交点赤经 327.849°
平近点角 266.760°
近地点: 474.159km
远地点: 476.105km
周期: 94.104分钟
每日圈数: 15.302281
详细信息
固有亮度:
5
最大亮度:
2.5
卫星平台:
Starlink V1.0
覆盖范围:
全球
运营商:
太空探索技术公司
运营商所在国:
美国
制造商(研发单位):
太空探索技术公司
制造商所在国:
美国
使用方式:
暂无
卫星简介
星链(Starlink)计划是由太空探索技术公司(SpaceX)提出的一个巨型低轨卫星互联网星座项目,计划在2019年至2024年间在太空搭建由约1.2万颗卫星组成的“星链”网络,其中1584颗将部署在地球上空550千米处的近地轨道,并从2020年开始工作。该卫星仍在工作。
2D轨道图
3D轨道图
轨道高度分析图
轨道倾角分析图
轨道综合分析图
查看轨道综合分析图